Location: Cambroso
(45.2833°N, 12.0850°E)
Time: 19:53:38
(UTC+00:00)

USA 234 - Pass Details

Date: 21 January 2021
Orbit: 1100 x 1107 km, 123.0° (Epoch: 26 February)

Event Time Altitude Azimuth Distance (km) Brightness Sun altitude
Exits shadow 19:43:04 42° 320° (NW) 1,525 4.1 -38.3°
Drops below altitude 10° 19:47:13 10° 311° (NW) 2,966 6.1 -39.0°
Sets 19:49:42 0° 309° (NW) 3,927 6.9 -39.4°
